カタログに戻る

ONEWEB-0363

運用中通信PO
NORAD 49289·PAYLOAD·🇬🇧 United Kingdom

打ち上げ Oct 14, 2021 から Vostochny Cosmodrome

Loading…

次のパス (今後24時間)

TLE

最新Source: CelesTrak SupGP

元期: Sep 15, 2026, 04:28 UTC

1 49289C 21090L   26258.18664769 -.00002681  00000+0 -66027-2 0  2583
2 49289  87.9137 256.4861 0002285  95.0703  17.0649 13.20771321    17

AllMySatでONEWEB-0363をリアルタイム追跡

Download on the App Store